Tracking 30995 objects as of 7-Jul-2025
HD Live streaming from Space Station
objects crossing your sky now

FENGYUN 1C DEB

Track FENGYUN 1C DEB now!
10-day predictions


NORAD ID: 31823
Int'l Code: 1999-025CHM
Perigee: 666.2 km
Apogee: 722.0 km
Inclination: 99.5 °
Period: 98.5 minutes
Semi major axis: 7065 km
RCS: 0.0046 m2 (small)
Launch date: May 10, 1999
Source: People's Republic of China (PRC)
Launch site: Taiyaun Space Center, China (TSC)

Note: This is SATELLITE DEBRIS
Your satellite tracking list
Your tracking list is empty




NASA's NSSDC Master Catalog

Two Line Element Set (TLE):
1 31823U 99025CHM 25187.62262173  .00001984  00000-0  40442-3 0  9993
2 31823  99.5199 249.4765 0039521 340.6277  19.3415 14.61934600943909
Source of the keplerian elements: AFSPC